Miscellaneous Local Product
Issued by NWS Hastings, NE

Home | Current Version | Previous Version | Text Only | Print | Product List | Glossary On
Versions: 1 2 3 4 5 6 7 8 9 10 11 12 13 14 15 16 17 18 19 20 21 22 23 24 25 26 27 28 29 30 31 32 33 34 35 36 37 38 39 40 41 42 43 44 45 46 47 48 49 50
000
AXUS43 KGID 051302
MISGRI

GID CWA HOURLY WEATHER ROUNDUP
NATIONAL WEATHER SERVICE HASTINGS NE
800 AM CDT TUE MAY 05 2015

NOTE: "FAIR" INDICATES FEW OR NO CLOUDS BELOW 12,000 FEET WITH NO
SIGNIFICANT WEATHER AND/OR OBSTRUCTIONS TO VISIBILITY.

...SOUTH CENTRAL NEBRASKA...

CITY           SKY/WX    TMP DP  RH WIND       PRES   REMARKS
GRAND ISLAND   FOG       56  56 100 E5        30.06R VSB 1/4
HASTINGS       CLOUDY    58  58 100 E5        30.05R FOG
KEARNEY        CLOUDY    57  55  94 E6        30.05S VSB 1/4
ORD            CLOUDY    54  53  97 E7        30.04R FOG
YORK           FOG       57  57 100 E5        30.06R VSB<1/4
AURORA         FOG       57  57 100 E5        30.06R VSB 1/4
LEXINGTON      FOG       55  54  97 E5        30.04R VSB 1/4
HOLDREGE       CLOUDY    57  56  97 CALM      30.04R FOG
HEBRON         PTSUNNY   61  58  89 SE8       30.05R

...NEBRASKA PANHANDLE...

CITY           SKY/WX    TMP DP  RH WIND       PRES   REMARKS
CHADRON        SUNNY     44  40  85 N3        30.00S
ALLIANCE       CLOUDY    48  46  93 S9        30.02S FOG
SCOTTSBLUFF    CLOUDY    48  45  89 SE9       30.01S FOG
SIDNEY         CLOUDY    46  45  96 S3        30.03S FOG

...WESTERN AND NORTH CENTRAL NEBRASKA...

CITY           SKY/WX    TMP DP  RH WIND       PRES   REMARKS
VALENTINE      CLOUDY    53  46  77 E8        30.05R
AINSWORTH      CLOUDY    53  52  97 E7        30.05S FOG
ONEILL         CLOUDY    53  52  95 E9        30.07S FOG
BROKEN BOW     FOG       54  53  97 NE6       30.03S VSB 1/4
IMPERIAL       FOG       50  49  96 N6        30.03R VSB 3/4
NORTH PLATTE   FOG       52  51  97 E6        30.04R VSB 3/4
MCCOOK         FOG       54  53  97 NE8       30.01F VSB 1/4

...EASTERN NEBRASKA...

CITY           SKY/WX    TMP DP  RH WIND       PRES   REMARKS
NORFOLK        CLOUDY    56  55  97 E6        30.06R FOG
SO SIOUX CITY  CLOUDY    55  51  86 E9        30.08S
TEKAMAH        CLOUDY    58  57  97 E5        30.07S FOG
COLUMBUS       CLOUDY    55  52  88 E10       30.09R VSB 1/4
ALBION         FOG       55  53  94 NE8       30.05R VSB 1/2
OMAHA EPPLEY   CLOUDY    61  59  93 SE6       30.08R
OFFUTT AFB     CLOUDY    61  59  94 SE8       30.07R
MILLARD        CLOUDY    62  59  93 SE5       30.07S
LINCOLN        CLOUDY    61  59  93 E6        30.07R
NEBRASKA CITY  CLOUDY    60  60 100 S3        30.09R
BEATRICE       MOSUNNY   61  58  92 CALM      30.06R
FALLS CITY     CLOUDY    60  58  92 E5        30.08R

...NORTHERN KANSAS...

CITY           SKY/WX    TMP DP  RH WIND       PRES   REMARKS
GOODLAND       FOG       53  53 100 E7        30.00S VSB 1/4
HILL CITY      CLOUDY    60  57  89 E3        30.00F
NORTON         CLOUDY    57  55  94 CALM      30.00F FOG
PHILLIPSBURG   CLOUDY    61  61 100 E5        30.01S FOG
SMITH CENTER   SUNNY     57  57 100 E13       30.02S
HAYS           CLOUDY    59  54  82 SE10      30.01R
RUSSELL        CLOUDY    60  58  92 SE13      29.99S
CONCORDIA      CLOUDY    61  58  90 SE12      30.04R
SALINA         CLOUDY    61  57  87 SE6       30.04R
TOPEKA         CLOUDY    63  61  93 E3        30.09R



USA.gov is the U.S. government's official web portal to all federal, state and local government web resources and services.